Location: Michelbach Markt
(48.1000°N, 15.7500°E)
Time: 11:56:35
(UTC+02:00)

Envisat - Visible Passes

Search period start: 31 March 2023 00:00
Search period end: 10 April 2023 00:00
Orbit: 763 x 765 km, 98.2° (Epoch: 30 March)

Date Brightness Start Highest point End Pass type
(mag) Time Alt. Az. Time Alt. Az. Time Alt. Az.
31 Mar 4.2 04:28:24 10° NNE 04:33:13 40° E 04:37:58 10° SSE visible
01 Apr 5.3 03:52:05 10° NE 03:55:48 20° E 03:59:28 10° SE visible
01 Apr 3.1 05:30:11 10° N 05:35:12 61° WNW 05:40:11 10° SSW visible
02 Apr 3.3 04:53:02 10° NNE 04:58:07 67° ESE 05:03:10 10° S visible
03 Apr 4.6 04:16:17 10° NNE 04:20:51 32° E 04:25:22 10° SSE visible
03 Apr 3.6 05:55:12 10° N 05:59:53 38° WNW 06:04:32 10° SW visible
04 Apr 5.6 03:40:18 10° NE 03:43:21 16° E 03:46:23 10° SE visible
04 Apr 3.0 05:17:50 10° N 05:22:56 77° WNW 05:28:00 10° SSW visible
05 Apr 3.7 04:40:49 10° NNE 04:45:47 52° E 04:50:44 10° S visible
06 Apr 5.0 04:04:14 10° NE 04:08:26 26° E 04:12:38 10° SSE visible
06 Apr 3.3 05:42:47 10° N 05:47:40 47° WNW 05:52:30 10° SW visible
07 Apr 5.7 03:28:51 10° ENE 03:30:53 12° E 03:32:54 10° ESE visible
07 Apr 3.0 05:05:32 10° NNE 05:10:39 86° ESE 05:15:44 10° SSW visible
08 Apr 4.2 04:28:37 10° NNE 04:33:26 41° E 04:38:13 10° SSE visible
09 Apr 5.3 03:52:15 10° NE 03:56:01 20° E 03:59:44 10° SE visible
09 Apr 3.1 05:30:24 10° N 05:35:24 60° WNW 05:40:23 10° SSW visible
